Weather History for Kendall, FL

Change the Weather History Date:

Sunday, March 31, 2013

  Actual Average Record
Temperature  
Mean Temperature 70 °F -  
Max Temperature 81 °F 85 °F 90 °F (2009)
Min Temperature 59 °F 67 °F 51 °F (2003)
Cooling Degree Days 4    
Growing Degree Days 20 (Base 50)    
Moisture  
Dew Point 61 °F    
Average Humidity 71    
Maximum Humidity 93    
Minimum Humidity 52    
Precipitation  
Precipitation 0.00 in - - ()
Sea Level Pressure  
Sea Level Pressure 30.12 in    
Wind  
Wind Speed 7 mph (SE)    
Max Wind Speed 18 mph    
Max Gust Speed 24 mph    
Visibility 10 miles    
Events      
Averages and records for this station are not official NWS values.
T = Trace of Precipitation, MM = Missing Value Source: NWS Daily Summary

Daily Weather History Graph

Daily Weather History Graph

Search for Another Location

Airport:

Trip Planner

Search our weather history database for the weather conditions in past years. The results will help you decide how hot, cold, wet, or windy it might be!

Date:

Astronomy

Mar. 31, 2013 Rise Set
Actual Time 7:13 AM EDT 7:38 PM EDT
Civil Twilight 6:50 AM EDT 8:01 PM EDT
Nautical Twilight 6:23 AM EDT 8:28 PM EDT
Astronomical Twilight 5:56 AM EDT 8:55 PM EDT
Moon No Moon Rise 10:25 AM EDT (3/31)
Length of Visible Light 13h 10m
Length of Day
12h 24m
Waning Gibbous, 78% of the Moon is Illuminated
Mar 31
Waning Gibbous
Apr 3
Last Quarter
Apr 10
New
Apr 18
First Quarter
Apr 25
Full

Hourly Weather History & Observations

Time (EDT) Temp. Heat Index Dew Point Humidity Pressure Visibility Wind Dir Wind Speed Gust Speed Precip Events Conditions
12:53 AM 64.0 °F - 55.0 °F 73% 30.20 in 10.0 mi East 4.6 mph - N/A   Clear
1:53 AM 60.1 °F - 54.0 °F 80% 30.18 in 10.0 mi East 6.9 mph - N/A   Clear
2:53 AM 60.1 °F - 55.0 °F 83% 30.16 in 10.0 mi East 5.8 mph - N/A   Clear
3:53 AM 60.1 °F - 55.0 °F 83% 30.15 in 10.0 mi Calm Calm - N/A   Clear
4:53 AM 60.1 °F - 55.9 °F 86% 30.14 in 10.0 mi Calm Calm - N/A   Clear
5:53 AM 62.1 °F - 57.0 °F 84% 30.14 in 10.0 mi Calm Calm - N/A   Clear
6:53 AM 61.0 °F - 55.9 °F 83% 30.15 in 10.0 mi East 3.5 mph - N/A   Clear
7:53 AM 59.0 °F - 57.0 °F 93% 30.15 in 10.0 mi East 4.6 mph - N/A   Clear
8:53 AM 73.0 °F - 62.1 °F 68% 30.16 in 10.0 mi ESE 9.2 mph - N/A   Clear
9:53 AM 75.9 °F - 63.0 °F 64% 30.17 in 10.0 mi SE 10.4 mph 18.4 mph N/A   Scattered Clouds
10:53 AM 78.1 °F - 60.1 °F 54% 30.16 in 10.0 mi SSE 16.1 mph - N/A   Scattered Clouds
11:53 AM 79.0 °F - 60.1 °F 52% 30.16 in 10.0 mi SE 18.4 mph 24.2 mph N/A   Partly Cloudy
12:53 PM 79.0 °F - 61.0 °F 54% 30.13 in 10.0 mi SSE 12.7 mph 24.2 mph N/A   Scattered Clouds
1:53 PM 79.0 °F - 62.1 °F 56% 30.12 in 10.0 mi SSE 15.0 mph 24.2 mph N/A   Scattered Clouds
2:53 PM 80.1 °F 81.2 °F 62.1 °F 54% 30.11 in 10.0 mi SE 13.8 mph - N/A   Mostly Cloudy
3:53 PM 79.0 °F - 63.0 °F 58% 30.08 in 10.0 mi SSE 11.5 mph 21.9 mph N/A   Mostly Cloudy
4:53 PM 79.0 °F - 64.0 °F 60% 30.07 in 10.0 mi SE 11.5 mph - N/A   Scattered Clouds
5:53 PM 78.1 °F - 64.0 °F 62% 30.06 in 10.0 mi SE 10.4 mph - N/A   Partly Cloudy
6:53 PM 75.9 °F - 64.0 °F 67% 30.06 in 10.0 mi SE 9.2 mph 18.4 mph N/A   Partly Cloudy
7:53 PM 73.9 °F - 64.9 °F 73% 30.06 in 10.0 mi SE 6.9 mph - N/A   Scattered Clouds
8:53 PM 73.0 °F - 66.0 °F 79% 30.07 in 10.0 mi SE 6.9 mph - N/A   Partly Cloudy
9:53 PM 72.0 °F - 64.9 °F 78% 30.07 in 10.0 mi SE 5.8 mph - N/A   Clear
10:53 PM 72.0 °F - 66.0 °F 81% 30.07 in 10.0 mi SE 3.5 mph - N/A   Clear
11:53 PM 72.0 °F - 66.0 °F 81% 30.08 in 10.0 mi SSE 4.6 mph - N/A   Clear